Regional Weather Roundup
Issued by NWS State College, PA

Home | Current Version | Previous Version | Text Only | Print | Product List | Glossary On
Versions: 1 2 3 4 5 6 7 8 9 10 11 12 13 14 15 16 17 18 19 20 21 22 23 24 25 26 27 28 29 30 31 32 33 34 35 36 37 38 39 40 41 42 43 44 45 46 47 48 49 50
000
ASUS41 KCTP 181610
RWRCTP

REGIONAL WEATHER ROUNDUP
NATIONAL WEATHER SERVICE STATE COLLEGE PA
1200 PM EDT FRI APR 18 2014

Note: "fair" indicates few or no clouds below 12,000 feet with no
significant weather and/or obstructions to visibility.

* = STATION THAT DOES NOT REPORT PRECIPITATION /E.G. RAIN...SNOW...ETC/
    THUNDER OR FOG.

PAZ002>004-007>009-013>016-020>023-029>032-181700-
WESTERN PENNSYLVANIA

CITY           SKY/WX    TMP DP  RH WIND       PRES   REMARKS
ERIE           MOSUNNY   60  30  32 SW9G16    30.28S
MEADVILLE      NOT AVBL
FRANKLIN*      PTSUNNY   52  30  43 SE8       30.32F
NEW CASTLE     FAIR      56  29  35 VRB5      30.31F
BEAVER COUNTY  SUNNY     55  28  35 S8        30.30F
BUTLER*        CLOUDY    55  28  35 W6        30.32F
PITTSBURGH INT CLOUDY    56  26  31 SW7       30.29F
PITTSBURGH     CLOUDY    58  28  32 SW8       30.30F
INDIANA*       CLOUDY    55  28  35 CALM      30.31F
LATROBE        PTSUNNY   61  28  29 SW8       30.31F
WASHINGTON CO* CLOUDY    59  28  31 W5        30.32F
$$

PAZ004>006-010>012-017>019-024>028-033>037-041-042-045-046-049>053-181700-
CENTRAL PENNSYLVANIA

CITY           SKY/WX    TMP DP  RH WIND       PRES   REMARKS
BRADFORD       CLOUDY    50  26  39 S8        30.29F
DUBOIS         CLOUDY    52  30  43 S8        30.30F
CLEARFIELD     CLOUDY    49  32  52 S3        30.34F
JOHNSTOWN      PTSUNNY   50  31  48 SE7       30.31F
ALTOONA        PTSUNNY   47  34  60 SW7       30.37F
STATE COLLEGE  SUNNY     48  30  49 S8        30.36F
WILLIAMSPORT   CLOUDY    44  30  57 S6        30.43S
SELINSGROVE    CLOUDY    45  29  53 SW8       30.45F
FT INDIANTOWN  CLOUDY    44  32  62 SE8       30.46F
CAPITAL CITY   PTSUNNY   45  31  58 E8        30.46F
HARRISBURG     CLOUDY    47  30  51 SE6       30.46F
YORK           CLOUDY    44  31  60 VRB3      30.46F
$$

PAZ038>040-043-044-047-048-054-055-060>062-067>071-181700-
EASTERN PENNSYLVANIA

CITY           SKY/WX    TMP DP  RH WIND       PRES   REMARKS
SCRANTON       CLOUDY    46  26  45 SW9G17    30.40F
MOUNT POCONO   CLOUDY    37  27  67 S6        30.39F
ALLENTOWN      CLOUDY    44  29  55 VRB5      30.46F
QUAKERTOWN*    CLOUDY    43  32  65 CALM      30.47F
READING        PTSUNNY   45  30  55 S8        30.46F
LANCASTER      PTSUNNY   42  30  62 S6        30.46F
COATESVILLE    NOT AVBL
POTTSTOWN      CLOUDY    44  31  60 S6        30.48F
BLUE BELL      CLOUDY    45  32  61 CALM      30.47S
DOYLESTOWN     CLOUDY    42  30  62 CALM      30.46F
WILLOW GROVE   NOT AVBL
NORTH PHILA    CLOUDY    44  29  55 S5        30.51S
PHILADELPHIA   CLOUDY    46  30  53 NE6       30.49F
$$



USA.gov is the U.S. government's official web portal to all federal, state and local government web resources and services.